Location: Dessau
(51.7984°N, 12.2168°E)
Time: 19:31:18
(UTC+01:00)

ISS - Pass Details

Date: 11 November 2017
Orbit: 402 x 407 km, 51.6° (Epoch: 24 November)

Event Time Altitude Azimuth Distance (km) Brightness Sun altitude
Exits shadow 06:42:30 - 276° (W) 1,599 -1.4 -6.6°
Reaches altitude 10° 06:42:52 10° 274° (W) 1,458 -1.6 -6.6°
Maximum altitude 06:45:52 34° 207° (SSW) 682 -2.7 -6.1°
Drops below altitude 10° 06:48:52 10° 140° (SE) 1,452 0.1 -5.7°
Sets 06:51:02 0° 131° (SE) 2,309 1.6 -5.4°
